UAL388 KEWR-TBPB

Flight info

Callsign UAL388
Flight time N/A
Altitude 37000
Route ELVAE DCT NECCK DCT DIXIE Y481 KINGG/M081F370 DCT KINER L461 BOVIC/M081F390 L461 OPAUL/N0465F390 L461 YIYYO DCT LAMKN/N0474F400 DCT ANU/N0470F390 UA632 BGI
Aircraft B77W/H-SDE1E2E3FGHIJ2J3J4J5M1RWXY/LB1D1

Departure

Time 2026-05-06 16:22
Airport Newark Liberty International Airport (KEWR)

Arrival

Time N/A
Airport Grantley Adams International Airport (TBPB)
Time Latitude Longitude Altitude Speed Heading
2026-05-06 16:08 40.69915 -74.17767 26 ft 0 kts 242°
2026-05-06 16:13 40.69915 -74.17766 26 ft 2 kts 242°
2026-05-06 16:13 40.69922 -74.17747 26 ft 2 kts 250°
2026-05-06 16:13 40.69927 -74.17726 26 ft 2 kts 261°
2026-05-06 16:14 40.69927 -74.17704 25 ft 2 kts 284°
2026-05-06 16:14 40.69920 -74.17685 26 ft 2 kts 321°
2026-05-06 16:14 40.69908 -74.17676 24 ft 1 kts 347°
2026-05-06 16:14 40.69905 -74.17675 24 ft 0 kts 351°
2026-05-06 16:15 40.69921 -74.17677 25 ft 4 kts 354°
2026-05-06 16:15 40.69946 -74.17679 27 ft 4 kts 356°
2026-05-06 16:16 40.69971 -74.17679 29 ft 4 kts
2026-05-06 16:16 40.70013 -74.17676 30 ft 9 kts
2026-05-06 16:16 40.70077 -74.17669 29 ft 10 kts
2026-05-06 16:16 40.70133 -74.17627 27 ft 10 kts 71°
2026-05-06 16:17 40.70135 -74.17531 29 ft 10 kts 94°
2026-05-06 16:17 40.70129 -74.17436 30 ft 10 kts 95°
2026-05-06 16:17 40.70122 -74.17341 30 ft 10 kts 95°
2026-05-06 16:17 40.70116 -74.17244 28 ft 11 kts 95°
2026-05-06 16:18 40.70110 -74.17147 27 ft 11 kts 94°
2026-05-06 16:18 40.70104 -74.17049 26 ft 11 kts 95°
2026-05-06 16:18 40.70098 -74.16951 26 ft 11 kts 94°
2026-05-06 16:18 40.70092 -74.16853 24 ft 11 kts 95°
2026-05-06 16:19 40.70098 -74.16754 23 ft 8 kts 55°
2026-05-06 16:19 40.70174 -74.16733 23 ft 19 kts
2026-05-06 16:19 40.70275 -74.16717 26 ft 9 kts 24°
2026-05-06 16:19 40.70294 -74.16617 25 ft 22 kts 90°
2026-05-06 16:20 40.70284 -74.16447 26 ft 9 kts 95°
2026-05-06 16:20 40.70283 -74.16425 26 ft 0 kts 95°
2026-05-06 16:20 40.70283 -74.16424 26 ft 0 kts 95°
2026-05-06 16:21 40.70278 -74.16338 24 ft 18 kts 93°
2026-05-06 16:21 40.70235 -74.16248 26 ft 9 kts 185°
2026-05-06 16:21 40.70071 -74.16333 23 ft 45 kts 205°
2026-05-06 16:21 40.69656 -74.16599 30 ft 86 kts 206°
2026-05-06 16:22 40.69020 -74.17014 28 ft 117 kts 209°
2026-05-06 16:22 40.68211 -74.17554 181 ft 143 kts 209°
2026-05-06 16:22 40.67302 -74.18230 521 ft 160 kts 213°
2026-05-06 16:22 40.66279 -74.18964 886 ft 182 kts 210°
2026-05-06 16:23 40.65155 -74.19785 1514 ft 187 kts 210°
2026-05-06 16:23 40.63979 -74.20650 2194 ft 194 kts 209°
2026-05-06 16:23 40.62835 -74.21490 3208 ft 188 kts 212°
2026-05-06 16:23 40.61656 -74.22366 3972 ft 205 kts 212°
2026-05-06 16:24 40.60382 -74.23311 4896 ft 213 kts 212°
2026-05-06 16:24 40.59069 -74.24282 5930 ft 220 kts 211°
2026-05-06 16:24 40.57720 -74.25285 7011 ft 225 kts 212°
2026-05-06 16:24 40.56341 -74.26307 8068 ft 229 kts 211°
2026-05-06 16:25 40.54824 -74.26991 8975 ft 241 kts 190°
2026-05-06 16:25 40.53107 -74.26862 9985 ft 254 kts 175°
2026-05-06 16:25 40.51349 -74.26155 10672 ft 278 kts 168°
2026-05-06 16:25 40.49422 -74.25201 10952 ft 313 kts 166°
2026-05-06 16:26 40.47341 -74.24120 11710 ft 328 kts 166°
2026-05-06 16:26 40.45188 -74.23000 12681 ft 337 kts 166°
2026-05-06 16:26 40.42984 -74.21868 13795 ft 342 kts 167°
2026-05-06 16:26 40.40740 -74.20734 14713 ft 350 kts 167°
2026-05-06 16:27 40.38431 -74.19585 15580 ft 360 kts 167°
2026-05-06 16:27 40.36050 -74.18410 16464 ft 371 kts 167°
2026-05-06 16:27 40.33604 -74.17239 17402 ft 376 kts 170°
2026-05-06 16:27 40.31058 -74.16439 18293 ft 377 kts 178°
2026-05-06 16:28 40.28474 -74.16041 19058 ft 378 kts 184°
2026-05-06 16:28 40.25844 -74.16032 19865 ft 379 kts 188°
2026-05-06 16:28 40.23192 -74.16121 20632 ft 386 kts 188°
2026-05-06 16:28 40.20487 -74.16200 21418 ft 392 kts 188°
2026-05-06 16:29 40.17735 -74.16261 22236 ft 397 kts 188°
2026-05-06 16:29 40.14944 -74.16070 22893 ft 413 kts 175°
2026-05-06 16:29 40.12192 -74.14667 23532 ft 440 kts 155°
2026-05-06 16:29 40.09813 -74.12017 24215 ft 461 kts 136°
2026-05-06 16:30 40.08108 -74.08396 24879 ft 479 kts 115°
2026-05-06 16:30 40.07740 -74.07049 25071 ft 480 kts 111°
2026-05-06 16:30 40.06298 -73.99939 25949 ft 494 kts 106°
2026-05-06 16:30 40.05504 -73.95551 26662 ft 497 kts 106°
2026-05-06 16:31 40.04701 -73.91141 27341 ft 500 kts 106°
2026-05-06 16:31 40.03864 -73.86707 27907 ft 506 kts 107°
2026-05-06 16:31 40.02988 -73.82233 28445 ft 512 kts 107°
2026-05-06 16:31 40.02080 -73.77718 29011 ft 517 kts 107°
2026-05-06 16:32 40.01149 -73.73164 29537 ft 522 kts 108°
2026-05-06 16:32 40.00216 -73.68635 30062 ft 526 kts 108°
2026-05-06 16:32 39.99259 -73.64006 30524 ft 529 kts 107°
2026-05-06 16:32 39.98303 -73.59375 31209 ft 527 kts 107°
2026-05-06 16:33 39.97350 -73.54763 31738 ft 529 kts 107°
2026-05-06 16:33 39.96387 -73.50106 32197 ft 533 kts 107°
2026-05-06 16:33 39.95421 -73.45442 32651 ft 535 kts 106°
2026-05-06 16:34 39.93469 -73.36053 33644 ft 538 kts 106°
2026-05-06 16:34 39.92805 -73.32867 33956 ft 539 kts 106°
2026-05-06 16:34 39.91832 -73.28208 34377 ft 540 kts 105°
2026-05-06 16:34 39.90847 -73.23499 34885 ft 538 kts 105°
2026-05-06 16:35 39.89858 -73.18786 35256 ft 541 kts 105°
2026-05-06 16:35 39.88861 -73.14048 35538 ft 544 kts 105°
2026-05-06 16:35 39.87511 -73.07658 35933 ft 549 kts 105°
2026-05-06 16:35 39.86841 -73.04480 36168 ft 549 kts 105°
2026-05-06 16:36 39.85827 -72.99682 36559 ft 550 kts 105°
2026-05-06 16:36 39.84806 -72.94870 36918 ft 551 kts 104°
2026-05-06 16:36 39.83781 -72.90042 37007 ft 552 kts 104°
2026-05-06 16:37 39.81675 -72.80558 36972 ft 547 kts 108°
2026-05-06 16:37 39.79173 -72.71236 36995 ft 547 kts 110°
2026-05-06 16:38 39.76608 -72.61889 36997 ft 549 kts 109°
2026-05-06 16:38 39.74070 -72.52514 37009 ft 551 kts 109°
2026-05-06 16:39 39.71529 -72.43110 37006 ft 551 kts 109°
2026-05-06 16:39 39.68938 -72.33733 37009 ft 552 kts 110°
2026-05-06 16:40 39.66202 -72.24441 36998 ft 550 kts 116°
2026-05-06 16:40 39.62309 -72.15953 37021 ft 546 kts 129°
2026-05-06 16:41 39.57383 -72.08567 37036 ft 539 kts 137°
2026-05-06 16:41 39.52241 -72.01569 37017 ft 539 kts 137°
2026-05-06 16:42 39.47102 -71.94498 37016 ft 538 kts 137°
2026-05-06 16:42 39.42007 -71.87415 37032 ft 537 kts 136°
2026-05-06 16:43 39.36917 -71.80346 37043 ft 537 kts 136°
2026-05-06 16:43 39.31820 -71.73293 37044 ft 537 kts 136°
2026-05-06 16:44 39.26712 -71.66243 37054 ft 537 kts 136°
2026-05-06 16:44 39.21638 -71.59254 37055 ft 537 kts 136°
2026-05-06 16:45 39.16303 -71.52556 37070 ft 534 kts 142°
2026-05-06 16:45 39.10755 -71.46185 37065 ft 534 kts 142°
2026-05-06 16:46 39.05204 -71.39827 37065 ft 533 kts 142°
2026-05-06 16:46 38.99674 -71.33452 37070 ft 533 kts 142°
2026-05-06 16:47 38.94161 -71.27085 37059 ft 533 kts 142°
2026-05-06 16:47 38.88644 -71.20728 37080 ft 532 kts 142°
2026-05-06 16:48 38.83174 -71.14443 37085 ft 532 kts 142°
2026-05-06 16:48 38.77650 -71.08111 37089 ft 532 kts 142°
2026-05-06 16:49 38.72125 -71.01793 37093 ft 532 kts 142°
2026-05-06 16:49 38.66593 -70.95479 37071 ft 533 kts 142°
2026-05-06 16:50 38.61050 -70.89166 37098 ft 533 kts 142°
2026-05-06 16:50 38.55537 -70.82899 37108 ft 534 kts 142°
2026-05-06 16:51 38.49944 -70.76558 37109 ft 534 kts 142°
2026-05-06 16:51 38.44417 -70.70303 37112 ft 535 kts 142°
2026-05-06 16:52 38.38847 -70.64014 37101 ft 535 kts 142°
2026-05-06 16:52 38.33263 -70.57720 37133 ft 535 kts 142°
2026-05-06 16:53 38.27687 -70.51450 37127 ft 535 kts 141°
2026-05-06 16:53 38.22135 -70.45220 37116 ft 534 kts 141°
2026-05-06 16:54 38.16562 -70.38977 37127 ft 534 kts 141°
2026-05-06 16:54 38.11178 -70.32464 37112 ft 535 kts 135°
2026-05-06 16:55 38.06163 -70.25566 37137 ft 535 kts 134°
2026-05-06 16:55 38.01133 -70.18614 37149 ft 535 kts 134°
2026-05-06 16:56 37.96067 -70.11688 37143 ft 535 kts 134°
2026-05-06 16:56 37.90983 -70.04792 37145 ft 535 kts 134°
2026-05-06 16:57 37.85892 -69.97907 37142 ft 536 kts 134°
2026-05-06 16:57 37.80797 -69.91029 37137 ft 535 kts 134°
2026-05-06 16:58 37.75703 -69.84163 37157 ft 535 kts 134°
2026-05-06 16:58 37.70602 -69.77301 37161 ft 535 kts 134°
2026-05-06 16:59 37.65538 -69.70503 37153 ft 535 kts 134°
2026-05-06 16:59 37.60437 -69.63671 37160 ft 535 kts 134°
2026-05-06 17:00 37.55334 -69.56852 37162 ft 535 kts 134°
2026-05-06 17:00 37.50227 -69.50041 37171 ft 534 kts 133°
2026-05-06 17:01 37.45116 -69.43241 37172 ft 534 kts 134°
2026-05-06 17:01 37.40003 -69.36452 37170 ft 534 kts 134°
2026-05-06 17:02 37.34890 -69.29676 37171 ft 534 kts 134°
2026-05-06 17:02 37.29777 -69.22916 37178 ft 533 kts 134°
2026-05-06 17:03 37.24660 -69.16164 37189 ft 532 kts 133°
2026-05-06 17:03 37.19550 -69.09436 37170 ft 531 kts 133°
2026-05-06 17:04 37.14484 -69.02778 37175 ft 530 kts 133°
2026-05-06 17:04 37.09391 -68.96100 37183 ft 529 kts 133°
2026-05-06 17:05 37.04297 -68.89434 37184 ft 528 kts 133°
2026-05-06 17:05 36.99242 -68.82835 37201 ft 528 kts 133°
2026-05-06 17:06 36.94160 -68.76211 37185 ft 527 kts 133°
2026-05-06 17:06 36.89074 -68.69598 37188 ft 527 kts 133°
2026-05-06 17:07 36.83997 -68.63007 37193 ft 526 kts 133°
2026-05-06 17:07 36.78917 -68.56428 37195 ft 526 kts 133°
2026-05-06 17:08 36.73833 -68.49856 37212 ft 526 kts 133°
2026-05-06 17:08 36.68748 -68.43296 37204 ft 526 kts 133°
2026-05-06 17:09 36.63666 -68.36752 37197 ft 525 kts 133°
2026-05-06 17:09 36.58597 -68.30244 37212 ft 522 kts 134°
2026-05-06 17:10 36.53103 -68.24324 37213 ft 522 kts 142°
2026-05-06 17:10 36.47365 -68.18815 37221 ft 521 kts 142°
2026-05-06 17:11 36.41629 -68.13307 37200 ft 521 kts 142°
2026-05-06 17:11 36.35953 -68.07808 37215 ft 520 kts 142°
2026-05-06 17:12 36.30262 -68.02278 37201 ft 519 kts 142°
2026-05-06 17:12 36.24582 -67.96769 37201 ft 519 kts 142°
2026-05-06 17:13 36.18890 -67.91261 37215 ft 519 kts 142°
2026-05-06 17:13 36.13199 -67.85768 37214 ft 519 kts 142°
2026-05-06 17:14 36.07503 -67.80280 37213 ft 519 kts 142°
2026-05-06 17:14 36.01794 -67.74790 37222 ft 519 kts 142°
2026-05-06 17:15 35.96085 -67.69311 37213 ft 520 kts 142°
2026-05-06 17:15 35.90370 -67.63835 37217 ft 520 kts 142°
2026-05-06 17:16 35.84689 -67.58402 37219 ft 520 kts 142°
2026-05-06 17:16 35.78963 -67.52938 37232 ft 520 kts 142°
2026-05-06 17:17 35.73243 -67.47488 37208 ft 519 kts 142°
2026-05-06 17:17 35.67537 -67.42062 37207 ft 518 kts 142°
2026-05-06 17:18 35.61845 -67.36660 37208 ft 516 kts 142°
2026-05-06 17:18 35.56168 -67.31281 37207 ft 515 kts 142°
2026-05-06 17:19 35.50493 -67.25914 37207 ft 514 kts 142°
2026-05-06 17:19 35.44829 -67.20568 37228 ft 513 kts 142°
2026-05-06 17:20 35.39167 -67.15233 37217 ft 513 kts 142°
2026-05-06 17:20 35.33507 -67.09909 37212 ft 512 kts 142°
2026-05-06 17:21 35.27883 -67.04629 37212 ft 512 kts 142°
2026-05-06 17:21 35.22229 -66.99330 37219 ft 512 kts 142°
2026-05-06 17:22 35.16564 -66.94030 37199 ft 511 kts 142°
2026-05-06 17:22 35.10949 -66.88787 37233 ft 511 kts 142°
2026-05-06 17:23 35.06203 -66.84362 37200 ft 511 kts 142°
2026-05-06 17:23 35.00588 -66.79135 37197 ft 511 kts 142°
2026-05-06 17:24 34.94935 -66.73880 37216 ft 510 kts 142°
2026-05-06 17:24 34.89149 -66.68895 37208 ft 509 kts 152°
2026-05-06 17:25 34.82644 -66.65602 37212 ft 506 kts 166°
2026-05-06 17:25 34.75774 -66.63856 37215 ft 504 kts 172°
2026-05-06 17:26 34.68871 -66.62282 37207 ft 505 kts 172°
2026-05-06 17:26 34.61952 -66.60655 37199 ft 506 kts 171°
2026-05-06 17:27 34.55037 -66.58988 37199 ft 507 kts 171°
2026-05-06 17:27 34.48113 -66.57309 37200 ft 508 kts 171°
2026-05-06 17:28 34.41189 -66.55635 37191 ft 508 kts 171°
2026-05-06 17:28 34.34248 -66.53963 37195 ft 508 kts 171°
2026-05-06 17:29 34.27325 -66.52299 37198 ft 507 kts 171°
2026-05-06 17:29 34.20459 -66.50651 37192 ft 506 kts 171°
2026-05-06 17:30 34.13558 -66.48998 37182 ft 505 kts 171°
2026-05-06 17:30 34.06667 -66.47350 37190 ft 504 kts 171°
2026-05-06 17:31 33.99783 -66.45706 37197 ft 504 kts 171°
2026-05-06 17:31 33.92892 -66.44063 37196 ft 504 kts 171°
2026-05-06 17:32 33.86005 -66.42424 37190 ft 504 kts 171°
2026-05-06 17:32 33.79115 -66.40787 37198 ft 505 kts 171°
2026-05-06 17:33 33.72265 -66.39162 37196 ft 505 kts 171°
2026-05-06 17:33 33.65354 -66.37525 37193 ft 506 kts 171°
2026-05-06 17:34 33.58437 -66.35889 37191 ft 506 kts 171°
2026-05-06 17:34 33.51562 -66.34266 37194 ft 506 kts 171°
2026-05-06 17:35 33.44631 -66.32632 37191 ft 506 kts 171°
2026-05-06 17:35 33.37715 -66.31004 37179 ft 506 kts 171°
2026-05-06 17:36 33.27350 -66.28567 37195 ft 506 kts 171°
2026-05-06 17:36 33.20481 -66.26953 37191 ft 506 kts 171°
2026-05-06 17:37 33.13531 -66.25323 37180 ft 505 kts 171°
2026-05-06 17:37 33.06631 -66.23707 37192 ft 505 kts 171°
2026-05-06 17:38 32.99770 -66.22103 37187 ft 505 kts 171°
2026-05-06 17:38 32.92878 -66.20495 37190 ft 504 kts 171°
2026-05-06 17:39 32.85982 -66.18887 37176 ft 504 kts 172°
2026-05-06 17:39 32.79100 -66.17286 37186 ft 504 kts 172°
2026-05-06 17:40 32.72221 -66.15689 37184 ft 504 kts 172°
2026-05-06 17:40 32.65342 -66.14105 37186 ft 503 kts 172°
2026-05-06 17:41 32.58501 -66.12536 37177 ft 503 kts 172°
2026-05-06 17:41 32.51617 -66.10957 37187 ft 503 kts 172°
2026-05-06 17:42 32.44740 -66.09380 37184 ft 503 kts 172°
2026-05-06 17:42 32.37861 -66.07806 37185 ft 504 kts 172°
2026-05-06 17:43 32.30982 -66.06225 37183 ft 503 kts 172°
2026-05-06 17:43 32.24098 -66.04635 37186 ft 503 kts 172°
2026-05-06 17:44 32.17220 -66.03051 37186 ft 503 kts 172°
2026-05-06 17:44 32.10334 -66.01469 37184 ft 503 kts 172°
2026-05-06 17:45 32.03463 -65.99892 37178 ft 503 kts 172°
2026-05-06 17:45 31.96626 -65.98343 37181 ft 502 kts 172°
2026-05-06 17:46 31.89760 -65.96801 37183 ft 502 kts 172°
2026-05-06 17:46 31.82888 -65.95257 37169 ft 502 kts 172°